CZ-6A DEB, 61427

Orbit data source: Space-Track

CZ-6A DEB, 61427 is space debris in LEO originally from a launch on Tue, 06 Aug 2024 UTC launched from the Taiyaun Space Center, China (TSC). Debris objects in space refer to the collection of defunct objects orbiting the Earth. Examples of debris include non-operational satellites, rocket bodies, and fragments generated from explosions, collisions, or faulty payload assembly.

Loading next visibility...
Identifier
61427, 2024-140YU
Orbit
LEO
Country
Flag of CNCN / PRC
Related business
Manufacturer
SAST
Mission
Spacecraft
Bus & Motor
Unknown
Mass
Unknown
Launch date (UTC)
2024-08-06 (1 year ago)
Launch vehicle
Unknown
Launch site
Taiyaun Space Center, China (TSC)
Object type
Payload
Rocket body
Debris
Shape & HBR
Unknown shape, 0.1 m
Radar Cross Section
Small (<0.1 m²)

Expand to show TLE details & history
Last TLE update: 21 hours ago

TLE from 21 hours ago
0 CZ-6A DEB
1 61427U 24140YU  25341.25439496  .00477365  00000-0  89411-2 0  9995
2 61427  88.7884 277.3893 0049645  84.3430 276.3487 15.45711272 70564
Epoch: 2025-12-07T06:06Z
TLE epoch observation values (Epoch: 2025-12-07T06:06:19.724Z)
Latitude
-0.00008°
Longitude
109.5367°
Altitude
428.947 km
Speed
7.656 km/s
True Right ascension
18h 29m 33s
True Declination
0° 00' 00"
Sunlit
Object was in daylight at epoch
Visualization orbit readout
Latitude
Unknown
Longitude
Unknown
Altitude
Unknown
Speed
Unknown
Apparent Right ascension
Unknown
Apparent Declination
Unknown
Sunlit
N/A
Visualization observer readout
Local Sidereal Time
01:09:37
Azimuth
Unknown
Elevation
Unknown
Doppler factor
Unknown
Orbital elements
Apogee altitude
459.843 km
Perigee altitude
392.284 km
Semi-major axis
6,804.201 km
Eccentricity
0.00496
Inclination
88.7884°
RAAN
277.3893°
Arg. of periapsis
84.343°
True anomaly
275.78292°
Mean anomaly
276.3487°
Eccentric anomaly
276.06585°
Mean motion
3.86703 °/min
Orbital period
93.09 mins
BSTAR
0.0089411
Loading maneuver chart data...
Computing Atmospheric mass density...
Loading historical data...
Loading historical data...
Loading historical data...
Loading historical data...
Loading historical data...
Loading historical data...
Loading historical data...

Documentation

Showing up to 5 results
|